Weather History for RJTT - September, 2013

Change the Weather History Date:

Thursday, September 19, 2013

  Actual Average Record
Temperature  
Mean Temperature 73 °F -  
Max Temperature 78 °F 72 °F 89 °F (2011)
Min Temperature 68 °F 62 °F 66 °F (2002)
Cooling Degree Days 8    
Growing Degree Days 23 (Base 50)    
Moisture  
Dew Point 60 °F    
Average Humidity 63    
Maximum Humidity 78    
Minimum Humidity 47    
Precipitation  
Precipitation 0.00 in - - ()
Sea Level Pressure  
Sea Level Pressure 30.09 in    
Wind  
Wind Speed 7 mph ()    
Max Wind Speed 15 mph    
Max Gust Speed -    
Visibility 6.2 miles    
Events      
Averages and records for this station are not official NWS values.
T = Trace of Precipitation, MM = Missing Value Source: Averaged Metar Reports

Daily Weather History Graph

Daily Weather History Graph

Search for Another Location

Airport or City:

Trip Planner

Search our weather history database for the weather conditions in past years. The results will help you decide how hot, cold, wet, or windy it might be!

Date:

Astronomy

Sep. 19, 2013 Rise Set
Actual Time 5:26 AM JST 5:42 PM JST
Civil Twilight 5:00 AM JST 6:08 PM JST
Nautical Twilight 4:30 AM JST 6:37 PM JST
Astronomical Twilight 4:00 AM JST 7:08 PM JST
Moon 5:19 PM JST (9/19) 4:52 AM JST (9/19)
Length of Visible Light 13h 07m
Length of Day
12h 16m
Full, 100% of the Moon is Illuminated
Sep 19
Full
Sep 19
Full
Sep 27
Last Quarter
Oct 5
New
Oct 12
First Quarter

Hourly Weather History & Observations

Time (JST) Temp. Dew Point Humidity Pressure Visibility Wind Dir Wind Speed Gust Speed Precip Events Conditions
12:00 AM 73.4 °F 57.2 °F 57% 30.09 in - NE 5.8 mph - N/A   Clear
12:30 AM 71.6 °F 57.2 °F 60% 30.09 in - NE 5.8 mph - N/A   Clear
1:00 AM 69.8 °F 57.2 °F 64% 30.09 in - North 4.6 mph - N/A   Clear
1:30 AM 71.6 °F 57.2 °F 60% 30.09 in - NNE 3.5 mph - N/A   Clear
2:00 AM 69.8 °F 59.0 °F 68% 30.09 in - NNE 6.9 mph - N/A   Clear
2:30 AM 69.8 °F 59.0 °F 68% 30.09 in - NE 9.2 mph - N/A   Clear
3:00 AM 69.8 °F 60.8 °F 73% 30.09 in - NNE 10.4 mph - N/A   Clear
3:30 AM 69.8 °F 59.0 °F 68% 30.09 in - NE 8.1 mph - N/A   Clear
4:00 AM 68.0 °F 59.0 °F 73% 30.09 in - NE 5.8 mph - N/A   Clear
4:30 AM 68.0 °F 59.0 °F 73% 30.09 in - NNE 8.1 mph - N/A   Clear
5:00 AM 68.0 °F 59.0 °F 73% 30.09 in - NNE 9.2 mph - N/A   Clear
5:30 AM 68.0 °F 59.0 °F 73% 30.09 in - NNE 8.1 mph - N/A   Clear
6:00 AM 69.8 °F 59.0 °F 68% 30.09 in - North 6.9 mph - N/A   Clear
6:30 AM 69.8 °F 59.0 °F 68% 30.09 in - North 6.9 mph - N/A   Clear
7:00 AM 69.8 °F 59.0 °F 68% 30.12 in - NNW 6.9 mph - N/A   Clear
7:30 AM 71.6 °F 59.0 °F 64% 30.09 in - NNW 9.2 mph - N/A   Clear
8:00 AM 71.6 °F 59.0 °F 64% 30.09 in - North 4.6 mph - N/A   Clear
8:30 AM 73.4 °F 60.8 °F 65% 30.12 in - North 4.6 mph - N/A   Clear
9:00 AM 73.4 °F 59.0 °F 61% 30.12 in - NE 8.1 mph - N/A   Clear
9:30 AM 75.2 °F 59.0 °F 57% 30.09 in - NE 6.9 mph - N/A   Clear
10:00 AM 75.2 °F 55.4 °F 50% 30.09 in 6.2 mi NE 8.1 mph - N/A   Partly Cloudy
10:30 AM 75.2 °F 59.0 °F 57% 30.09 in 6.2 mi East 6.9 mph - N/A   Partly Cloudy
11:00 AM 77.0 °F 57.2 °F 50% 30.09 in 6.2 mi East 6.9 mph - N/A   Partly Cloudy
11:30 AM 77.0 °F 57.2 °F 50% 30.09 in 6.2 mi East 8.1 mph - N/A   Partly Cloudy
12:00 PM 78.8 °F 57.2 °F 47% 30.09 in 6.2 mi East 8.1 mph - N/A   Partly Cloudy
12:30 PM 78.8 °F 59.0 °F 51% 30.09 in 6.2 mi East 6.9 mph - N/A   Partly Cloudy
1:00 PM 78.8 °F 60.8 °F 54% 30.09 in 6.2 mi East 6.9 mph - N/A   Partly Cloudy
1:30 PM 78.8 °F 62.6 °F 57% 30.06 in 6.2 mi East 6.9 mph - N/A   Partly Cloudy
2:00 PM 78.8 °F 62.6 °F 57% 30.06 in 6.2 mi East 9.2 mph - N/A   Partly Cloudy
2:30 PM 78.8 °F 62.6 °F 57% 30.06 in 6.2 mi East 11.5 mph - N/A   Partly Cloudy
3:00 PM 78.8 °F 62.6 °F 57% 30.06 in 6.2 mi East 11.5 mph - N/A   Partly Cloudy
3:30 PM 78.8 °F 60.8 °F 54% 30.06 in 6.2 mi East 11.5 mph - N/A   Partly Cloudy
4:00 PM 78.8 °F 62.6 °F 57% 30.06 in 6.2 mi East 11.5 mph - N/A   Partly Cloudy
4:30 PM 77.0 °F 62.6 °F 61% 30.06 in 6.2 mi ESE 12.7 mph - N/A   Partly Cloudy
5:00 PM 77.0 °F 62.6 °F 61% 30.06 in 6.2 mi ESE 12.7 mph - N/A   Partly Cloudy
5:30 PM 77.0 °F 62.6 °F 61% 30.06 in 6.2 mi ESE 12.7 mph - N/A   Partly Cloudy
6:00 PM 75.2 °F 60.8 °F 61% 30.06 in 6.2 mi ESE 13.8 mph - N/A   Partly Cloudy
6:30 PM 75.2 °F 59.0 °F 57% 30.09 in - ESE 15.0 mph - N/A   Clear
7:00 PM 75.2 °F 59.0 °F 57% 30.09 in - ESE 12.7 mph - N/A   Clear
7:30 PM 75.2 °F 60.8 °F 61% 30.12 in - East 12.7 mph - N/A   Clear
8:00 PM 73.4 °F 60.8 °F 65% 30.12 in - East 11.5 mph - N/A   Clear
8:30 PM 73.4 °F 60.8 °F 65% 30.12 in - East 9.2 mph - N/A   Clear
9:00 PM 73.4 °F 60.8 °F 65% 30.12 in 6.2 mi East 8.1 mph - N/A   Partly Cloudy
9:30 PM 73.4 °F 60.8 °F 65% 30.12 in - East 6.9 mph - N/A   Clear
10:00 PM 73.4 °F 62.6 °F 69% 30.12 in 6.2 mi East 5.8 mph - N/A   Partly Cloudy
10:30 PM 73.4 °F 64.4 °F 73% 30.12 in 6.2 mi East 5.8 mph - N/A   Partly Cloudy
11:00 PM 71.6 °F 64.4 °F 78% 30.12 in 6.2 mi East 4.6 mph - N/A   Partly Cloudy
11:30 PM 71.6 °F 64.4 °F 78% 30.12 in 6.2 mi East 4.6 mph - N/A   Partly Cloudy